TimeCST,TemperatureF,Dew PointF,Humidity,Sea Level PressureIn,VisibilityMPH,Wind Direction,Wind SpeedMPH,Gust SpeedMPH,PrecipitationIn,Events,Conditions,WindDirDegrees,DateUTC
12:58 AM,19.0,15.8,87,30.33,10.0,NNE,2.3,-,N/A,,Clear,30,2014-01-30 06:58:00
2:58 AM,20.3,16.7,86,30.30,10.0,NNE,5.8,-,N/A,,Clear,30,2014-01-30 08:58:00
3:58 AM,20.3,17.1,87,30.31,10.0,NNE,5.8,-,N/A,,Clear,20,2014-01-30 09:58:00
4:58 AM,18.9,15.8,88,30.32,10.0,NE,4.6,-,N/A,,Clear,40,2014-01-30 10:58:00
5:58 AM,18.5,15.4,88,30.34,10.0,NE,5.8,-,N/A,,Clear,40,2014-01-30 11:58:00
6:48 AM,19.4,15.8,86,30.32,10.0,NNE,6.9,-,N/A,,Mostly Cloudy,30,2014-01-30 12:48:00
6:58 AM,19.8,16.7,88,30.34,10.0,NNE,6.9,-,N/A,,Mostly Cloudy,30,2014-01-30 12:58:00
7:13 AM,19.4,15.8,86,30.33,10.0,NNE,4.6,-,N/A,,Scattered Clouds,30,2014-01-30 13:13:00
7:58 AM,21.7,18.7,88,30.35,10.0,NE,5.8,-,N/A,,Clear,50,2014-01-30 13:58:00
8:58 AM,25.2,22.6,90,30.35,10.0,ENE,6.9,-,N/A,,Clear,60,2014-01-30 14:58:00
9:58 AM,30.6,27.1,87,30.33,10.0,ENE,8.1,-,N/A,,Partly Cloudy,70,2014-01-30 15:58:00
10:58 AM,33.1,28.2,82,30.32,10.0,NNE,8.1,-,N/A,,Partly Cloudy,30,2014-01-30 16:58:00
11:58 AM,34.0,28.2,79,30.30,10.0,NE,6.9,-,N/A,,Scattered Clouds,50,2014-01-30 17:58:00
12:58 PM,34.9,29.3,80,30.26,10.0,NE,9.2,-,N/A,,Scattered Clouds,40,2014-01-30 18:58:00
1:58 PM,36.5,29.8,77,30.25,10.0,North,6.9,-,N/A,,Mostly Cloudy,10,2014-01-30 19:58:00
2:03 PM,37.4,30.2,75,30.23,10.0,NNE,8.1,-,N/A,,Mostly Cloudy,20,2014-01-30 20:03:00
2:08 PM,37.4,30.2,75,30.23,10.0,Variable,4.6,-,N/A,,Scattered Clouds,0,2014-01-30 20:08:00
2:18 PM,37.4,32.0,81,30.24,10.0,Variable,3.5,-,N/A,,Mostly Cloudy,0,2014-01-30 20:18:00
2:38 PM,37.4,28.4,70,30.23,10.0,East,5.8,-,N/A,,Scattered Clouds,80,2014-01-30 20:38:00
2:58 PM,38.8,28.9,68,30.24,10.0,East,5.8,-,N/A,,Clear,80,2014-01-30 20:58:00
3:58 PM,38.5,29.7,71,30.21,10.0,NE,6.9,-,N/A,,Clear,50,2014-01-30 21:58:00
4:58 PM,36.7,30.0,77,30.23,10.0,NNE,5.8,-,N/A,,Clear,20,2014-01-30 22:58:00
5:58 PM,31.8,28.9,89,30.21,10.0,ENE,5.8,-,N/A,,Clear,70,2014-01-30 23:58:00
6:58 PM,30.0,28.2,93,30.21,10.0,NE,4.6,-,N/A,,Clear,50,2014-01-31 00:58:00
7:58 PM,30.6,28.8,93,30.22,10.0,North,4.6,-,N/A,,Clear,360,2014-01-31 01:58:00
8:58 PM,29.7,28.0,94,30.22,10.0,ENE,3.5,-,N/A,,Clear,70,2014-01-31 02:58:00
9:58 PM,27.3,26.1,95,30.21,10.0,NNE,5.8,-,N/A,,Clear,30,2014-01-31 03:58:00
10:58 PM,27.1,25.9,95,30.19,8.0,NE,5.8,-,N/A,,Clear,50,2014-01-31 04:58:00
11:58 PM,26.6,25.5,96,30.22,8.0,North,5.8,-,N/A,,Clear,10,2014-01-31 05:58:00